sat.trackr.live / text

‹ back to catalog

STARLINK-5360

NORAD 54846 · 2022-177AC

PAYLOAD ACTIVE UNKNOWN

§ Identity

Operator
Country
US
Launch date
2022-12-28
Launch site
AFETR
Launch vehicle
Mass (kg)
RCS (m²)

Purposes: comms

External: N2YO · Heavens-Above · Gunter

§ Orbital elements

Epoch: 2026-05-25T04:37:26.361408Z

Period
94.27 min
Inclination
43.0033°
Eccentricity
0.0000819
Mean motion
15.27577361 rev/d
Perigee alt
482.5 km
Apogee alt
483.6 km
Semi-major
6,861.2 km
B*
2.7190e-6
RAAN
60.5830°
Arg perigee
235.9413°
Mean anomaly
124.1361°
Rev number
18,866

§ Raw data

STARLINK-53601 54846U 22177AC  26145.19266622 -.00000187  00000+0  27190-5 0  99982 54846  43.0033  60.5830 0000819 235.9413 124.1361 15.27577361188660

JSON: /api/v1/satellites/54846 · /tle

For live sub-satellite position, see the globe view (requires WebGL).

§ Visibility from observer

Set your observer location to see the next 7 days of passes ≥ 10°. The values pass through the URL so the page stays shareable.

No JS? Fill the form by hand. The geolocation button needs JavaScript.